Weather History for Caslav, Czech Republic

Change the Weather History Date:

Wednesday, March 6, 2013

  Actual Average Record
Temperature  
Mean Temperature 42 °F -  
Max Temperature 55 °F - - ()
Min Temperature 28 °F - - ()
Degree Days  
Heating Degree Days 24    
Moisture  
Dew Point 33 °F    
Average Humidity 69    
Maximum Humidity 93    
Minimum Humidity 44    
Precipitation  
Precipitation 0.00 in - - ()
Sea Level Pressure  
Sea Level Pressure 29.76 in    
Wind  
Wind Speed 4 mph ()    
Max Wind Speed 10 mph    
Max Gust Speed -    
T = Trace of Precipitation, MM = Missing Value Source: Averaged Metar Reports

Daily Weather History Graph

Daily Weather History Graph

Search for Another Location

Airport:

Trip Planner

Search our weather history database for the weather conditions in past years. The results will help you decide how hot, cold, wet, or windy it might be!

Date:

Astronomy

Mar. 06, 2013 Rise Set
Actual Time 6:31 AM CET 5:48 PM CET
Civil Twilight 5:59 AM CET 6:21 PM CET
Nautical Twilight 5:21 AM CET 6:58 PM CET
Astronomical Twilight 4:44 AM CET 7:36 PM CET
Moon 2:50 AM CET (3/6) 11:46 AM CET (3/6)
Length of Visible Light 12h 22m
Length of Day
11h 17m
Waning Crescent, 33% of the Moon is Illuminated
Mar 6
Waning Crescent
Mar 11
New
Mar 19
First Quarter
Mar 27
Full
Apr 3
Last Quarter

Hourly Weather History & Observations

Time (CET) Temp. Windchill Dew Point Humidity Pressure Visibility Wind Dir Wind Speed Gust Speed Precip Events Conditions
12:00 AM 39.2 °F 34.2 °F 28.4 °F 65% 29.86 in - ESE 6.9 mph - N/A   Clear
1:00 AM 37.4 °F 32.8 °F 28.4 °F 70% 29.89 in - ESE 5.8 mph - N/A   Clear
2:00 AM 37.4 °F 32.8 °F 28.4 °F 70% 29.86 in - East 5.8 mph - N/A   Clear
3:00 AM 35.6 °F 32.8 °F 28.4 °F 75% 29.86 in - East 3.5 mph - N/A   Clear
4:00 AM 33.8 °F - 28.4 °F 81% 29.83 in - East 2.3 mph - N/A   Clear
5:00 AM 32.0 °F 28.7 °F 26.6 °F 80% 29.83 in - East 3.5 mph - N/A   Clear
6:00 AM 30.2 °F - 26.6 °F 86% 29.80 in - ESE 1.2 mph - N/A   Clear
7:00 AM 28.4 °F - 26.6 °F 93% 29.80 in - Calm Calm - N/A   Clear
8:00 AM 32.0 °F - 28.4 °F 87% 29.80 in - Calm Calm - N/A   Clear
9:00 AM 39.2 °F - 30.2 °F 70% 29.80 in - Calm Calm - N/A   Clear
10:00 AM 42.8 °F 40.1 °F 32.0 °F 66% 29.80 in - East 4.6 mph - N/A   Clear
11:00 AM 48.2 °F - 32.0 °F 54% 29.77 in - East 5.8 mph - N/A   Clear
12:00 PM 48.2 °F - 32.0 °F 54% 29.77 in - ENE 6.9 mph - N/A   Clear
1:00 PM 51.8 °F - 33.8 °F 50% 29.74 in - ENE 4.6 mph - N/A   Clear
2:00 PM 53.6 °F - 32.0 °F 44% 29.71 in - SE 8.1 mph - N/A   Clear
3:00 PM 55.4 °F - 33.8 °F 44% 29.68 in - SE 10.4 mph - N/A   Clear
4:00 PM 55.4 °F - 35.6 °F 47% 29.68 in - SE 8.1 mph - N/A   Clear
5:00 PM 55.4 °F - 37.4 °F 51% 29.68 in - ESE 5.8 mph - N/A   Clear
6:00 PM 51.8 °F - 37.4 °F 58% 29.68 in - East 3.5 mph - N/A   Clear
7:00 PM 50.0 °F - 41.0 °F 71% 29.68 in - ESE 6.9 mph - N/A   Clear
8:00 PM 46.4 °F 44.3 °F 41.0 °F 81% 29.68 in - East 4.6 mph - N/A   Clear
9:00 PM 46.4 °F 45.2 °F 41.0 °F 81% 29.65 in - East 3.5 mph - N/A   Clear
10:00 PM 42.8 °F - 39.2 °F 87% 29.65 in - SE 1.2 mph - N/A   Clear
11:00 PM 41.0 °F - 39.2 °F 93% 29.65 in - East 1.2 mph - N/A   Clear